Airfield :
LOGIN :

Register | Disclaimer

   EN    FR    IT 

 










Legend :    VFR   Marginal VFR   IFR   Intensive IFR   Very Intensive IFR
Visi :
Ceiling :
>= 8 km
>= 3000ft
5 to 8 km
1000 to 3000 ft
1500m to 5 km
500 to 1000 ft
800 to 1500m
200 to 500 ft
< 800m
< 200 ft
Symbols :   Thunderstorms  Fog  Heavy snow  Heavy precipitations  Wind > 20 kt
SIGMETs :     Misc.  Thunderstorms  Icing  Turbulence  Mountain Waves  Volcanic Ashes







- Airport Elevation : 56 ft


LPOV - Ovar Air Base

CURRENT METAR :
  • 220600Z VRB02KT 9999 FEW003 SCT008 BKN012 12/11 Q1031

EXPIRED METARs :
  • 220500Z 31003KT 9999 FEW003 SCT008 BKN012 12/11 Q1031
  • 220400Z VRB02KT 9999 FEW003 SCT008 BKN012 12/12 Q1031
  • 220300Z VRB02KT 9999 SCT008 BKN012 12/12 Q1031

TAF TAF LPOV
Valid from the 22 at 06:00 until the 23 at 06:00 UTC


220501Z 2206/2306 VRB02KT 9999 SCT006 BKN012
BECMG 2206/2209 SCT010 BKN020
PROB40 2221/2306 2000 BR BKN004
No reported NOTAMs for that airfield.



MET'MAP, your aeronautical weather chart ! - Copyright ORBIFLY December 2007 - Disclaimer

ORBIFLY MET'MAP TEAM :

Programming & Development : Alexandra Zaïnal
Concept & Development : Baudouin d'Aumeries
Co-Development & Prog : Marc-Olivier Méhu
Technical & hardware support : Manuel Goepfert

Contact : metmap@orbifly.com




SOURCES & CREDITS :

   NOAA